Hourly Weather Roundup
Issued by NWS Central Illinois

Home | Current Version | Previous Version | Text Only | Print | Product List | Glossary On
Versions: 1 2 3 4 5 6 7 8 9 10 11 12 13 14 15 16 17 18 19 20 21 22 23 24 25 26 27 28 29 30 31 32 33 34 35 36 37 38 39 40 41 42 43 44 45 46 47 48 49 50
000
NZUS43 KILX 300310
HWRILX

AREA WEATHER ROUNDUP
NATIONAL WEATHER SERVICE, LINCOLN IL
1000 PM CDT SAT AUG 29 2015


CITY           SKY/WX    TMP DP  RH WIND       PRES   REMARKS
BLOOMINGTON    CLOUDY    73  71  93 SW6       30.04S
CHAMPAIGN      CLOUDY    71  67  87 SW3       30.04R
DANVILLE       CLOUDY    70  68  91 S5        30.01S
DECATUR        MOCLDY    74  66  76 SW5       30.03S
EFFINGHAM      CLOUDY    71  66  86 CALM      30.06S
FLORA          CLOUDY    70  67  91 CALM      30.05S
GALESBURG      CLOUDY    68  67  95 CALM      30.04S FOG
JACKSONVILLE   CLOUDY    76  71  84 S5        30.02S
LACON          CLOUDY    70  67  90 CALM      30.03R
LAWRENCEVILLE  CLOUDY    73  70  90 CALM      30.06R
LITCHFIELD     CLOUDY    70  64  83 CALM      30.03S
$$


CITY           SKY/WX    TMP DP  RH WIND       PRES   REMARKS
LINCOLN        MOCLDY    74  68  80 S5        30.02S
MACOMB         CLOUDY    71  69  95 NE5       30.05R FOG
MATTOON        HAZE      73  67  81 S6        30.04S VSB 1/2
MT CARMEL AP   CLOUDY    70  68  94 CALM      30.06R
OLNEY-NOBLE AP CLOUDY    70  68  94 E3        30.06R
PARIS          CLOUDY    70  67  90 SW3       30.06R
PEORIA         CLOUDY    75  68  78 N3        30.03R
PONTIAC        CLOUDY    70  69  96 N5        30.03S
RANTOUL        CLOUDY    72  69  92 SW3       30.03S
ROBINSON       CLOUDY    70  68  93 CALM      30.06S
SPRINGFIELD    CLOUDY    74  69  85 S3        30.03R
TAYLORVILLE    CLOUDY    70  64  83 S5        30.03S
$$

...REGIONAL REPORTS...


CITY           SKY/WX    TMP DP  RH WIND       PRES   REMARKS
CHICAGO O`HARE CLOUDY    67  65  93 N3        30.03S FOG
KANKAKEE       CLOUDY    70  70  99 CALM      30.03S FOG
MOLINE         MOCLDY    65  63  93 CALM      30.04S FOG
MOUNT STERLING CLOUDY    72  70  94 CALM      30.03R
MOUNT VERNON   CLOUDY    70  64  83 CALM      30.06S
PITTSFIELD     PTCLDY    73  70  88 CALM      30.04R
QUINCY         PTCLDY    73  69  87 NE3       30.02R
ROCKFORD       CLOUDY    68  63  84 NE5       30.06S
$$


CITY           SKY/WX    TMP DP  RH WIND       PRES   REMARKS
BURLINGTON     MOCLDY    71  69  93 NE8       30.04R
CEDAR RAPIDS   PTCLDY    63  63 100 N6        30.05R
DES MOINES     CLOUDY    70  63  78 NE6       30.06R
KIRKSVILLE     CLOUDY    71  67  87 N7        30.05R
OTTUMWA        CLOUDY    68  67  96 NE6       30.03S
ST LOUIS       CLOUDY    79  68  69 S6        30.03R HX  81
$$


CITY           SKY/WX    TMP DP  RH WIND       PRES   REMARKS
TERRE HAUTE    CLOUDY    71  66  84 CALM      30.05R
EVANSVILLE     CLOUDY    74  71  91 CALM      30.05R
INDIANAPOLIS   CLOUDY    74  67  78 S5        30.05R
LAFAYETTE      CLOUDY    72  69  90 S6        30.04R
MADISON        CLOUDY    65  63  93 CALM      30.05F
MILWAUKEE      DRIZZLE   63  62  97 N6        30.05R FOG
$$





USA.gov is the U.S. government's official web portal to all federal, state and local government web resources and services.